Location: Newark
(27.9675°N, 86.8869°E)
Time: 05:04:09
(UTC+00:00)

Courier 1B Rocket - Pass Details

Date: 22 October 2019
Orbit: 920 x 1202 km, 28.2° (Epoch: 16 November)

Event Time Altitude Azimuth Distance (km) Brightness Sun altitude
Exits shadow 22:38:53 46° 275° (W) 1,214 5.0 -22.4°
Maximum altitude 22:40:55 87° 2° (N) 922 4.8 -21.9°
Drops below altitude 10° 22:47:15 10° 92° (E) 2,644 8.5 -20.5°
Sets 22:49:55 0° 93° (E) 3,615 9.6 -19.9°
